TimeEST,TemperatureF,Dew PointF,Humidity,Sea Level PressureIn,VisibilityMPH,Wind Direction,Wind SpeedMPH,Gust SpeedMPH,PrecipitationIn,Events,Conditions,WindDirDegrees,DateUTC
12:15 AM,60.8,57.2,88,30.15,10.0,South,10.4,17.3,N/A,,Overcast,180,2012-11-13 05:15:00
12:35 AM,62.6,59.0,88,30.14,10.0,South,8.1,-,N/A,,Overcast,180,2012-11-13 05:35:00
12:55 AM,62.6,59.0,88,30.13,8.0,South,10.4,16.1,N/A,,Overcast,180,2012-11-13 05:55:00
1:15 AM,60.8,59.0,94,30.13,9.0,South,9.2,16.1,N/A,,Overcast,190,2012-11-13 06:15:00
1:35 AM,60.8,59.0,94,30.13,10.0,SSW,9.2,-,N/A,,Overcast,200,2012-11-13 06:35:00
1:55 AM,53.6,50.0,88,30.16,5.0,WNW,11.5,19.6,0.01,,Overcast,290,2012-11-13 06:55:00
2:15 AM,50.0,48.2,94,30.18,5.0,WNW,9.2,16.1,0.03,,Overcast,300,2012-11-13 07:15:00
2:35 AM,50.0,46.4,87,30.20,4.0,WNW,6.9,-,0.03,,Overcast,290,2012-11-13 07:35:00
2:55 AM,48.2,46.4,93,30.21,4.0,West,9.2,-,0.04,,Overcast,270,2012-11-13 07:55:00
3:15 AM,46.4,44.6,93,30.22,3.0,Calm,Calm,-,0.01,,Overcast,0,2012-11-13 08:15:00
3:35 AM,46.4,44.6,93,30.22,5.0,NW,8.1,-,0.01,,Overcast,320,2012-11-13 08:35:00
3:55 AM,46.4,44.6,93,30.21,7.0,WNW,9.2,-,0.02,,Overcast,300,2012-11-13 08:55:00
4:15 AM,46.4,42.8,87,30.22,5.0,WNW,8.1,-,N/A,,Overcast,300,2012-11-13 09:15:00
4:35 AM,44.6,42.8,93,30.23,3.0,WNW,4.6,-,0.01,,Overcast,290,2012-11-13 09:35:00
4:55 AM,44.6,42.8,93,30.24,5.0,WNW,8.1,-,0.01,,Overcast,290,2012-11-13 09:55:00
5:15 AM,44.6,41.0,87,30.24,5.0,WNW,9.2,16.1,N/A,,Overcast,300,2012-11-13 10:15:00
5:35 AM,44.6,41.0,87,30.24,5.0,Calm,Calm,-,0.01,,Overcast,0,2012-11-13 10:35:00
5:55 AM,44.6,41.0,87,30.25,4.0,Calm,Calm,-,0.02,,Overcast,0,2012-11-13 10:55:00
6:15 AM,41.0,39.2,93,30.27,4.0,West,3.5,-,N/A,,Overcast,280,2012-11-13 11:15:00
6:35 AM,41.0,39.2,93,30.29,3.0,WNW,5.8,-,N/A,,Overcast,290,2012-11-13 11:35:00
7:15 AM,41.0,39.2,93,30.31,4.0,Calm,Calm,-,N/A,,Mostly Cloudy,0,2012-11-13 12:15:00
7:35 AM,41.0,37.4,87,30.30,3.0,Calm,Calm,-,0.01,,Mostly Cloudy,0,2012-11-13 12:35:00
7:55 AM,41.0,39.2,93,30.31,5.0,Calm,Calm,-,0.02,,Mostly Cloudy,0,2012-11-13 12:55:00
8:15 AM,41.0,39.2,93,30.32,8.0,Calm,Calm,-,0.01,,Mostly Cloudy,0,2012-11-13 13:15:00
8:35 AM,41.0,39.2,93,30.33,3.0,West,4.6,-,0.02,,Overcast,270,2012-11-13 13:35:00
8:55 AM,41.0,39.2,93,30.33,4.0,Calm,Calm,-,0.03,,Overcast,0,2012-11-13 13:55:00
9:15 AM,39.2,37.4,93,30.33,5.0,Calm,Calm,-,0.01,,Overcast,0,2012-11-13 14:15:00
9:35 AM,39.2,37.4,93,30.34,7.0,NW,3.5,-,0.01,,Overcast,320,2012-11-13 14:35:00
9:55 AM,39.2,37.4,93,30.34,10.0,WNW,4.6,-,0.01,,Mostly Cloudy,300,2012-11-13 14:55:00
10:15 AM,41.0,37.4,87,30.34,10.0,Calm,Calm,-,N/A,,Mostly Cloudy,0,2012-11-13 15:15:00
10:35 AM,39.2,37.4,93,30.36,7.0,WNW,4.6,-,N/A,,Overcast,290,2012-11-13 15:35:00
10:55 AM,41.0,37.4,87,30.35,8.0,Calm,Calm,-,N/A,,Mostly Cloudy,0,2012-11-13 15:55:00
11:15 AM,41.0,37.4,87,30.34,10.0,NW,3.5,-,N/A,,Mostly Cloudy,320,2012-11-13 16:15:00
11:35 AM,41.0,37.4,87,30.33,10.0,NNW,4.6,-,N/A,,Mostly Cloudy,340,2012-11-13 16:35:00
11:55 AM,41.0,35.6,81,30.33,10.0,NW,4.6,-,N/A,,Mostly Cloudy,320,2012-11-13 16:55:00
12:15 PM,42.8,35.6,76,30.32,10.0,NNW,4.6,-,N/A,,Mostly Cloudy,330,2012-11-13 17:15:00
12:35 PM,42.8,35.6,76,30.32,10.0,NW,5.8,-,N/A,,Mostly Cloudy,320,2012-11-13 17:35:00
12:55 PM,44.6,35.6,71,30.32,10.0,NW,6.9,-,N/A,,Mostly Cloudy,320,2012-11-13 17:55:00
1:15 PM,44.6,35.6,71,30.32,10.0,North,9.2,-,N/A,,Mostly Cloudy,350,2012-11-13 18:15:00
1:55 PM,44.6,33.8,66,30.32,10.0,NNW,8.1,-,N/A,,Overcast,340,2012-11-13 18:55:00
2:15 PM,44.6,33.8,66,30.32,10.0,Calm,Calm,-,N/A,,Overcast,0,2012-11-13 19:15:00
2:35 PM,44.6,32.0,61,30.32,10.0,Calm,Calm,-,N/A,,Partly Cloudy,0,2012-11-13 19:35:00
2:55 PM,44.6,32.0,61,30.31,10.0,North,3.5,-,N/A,,Clear,350,2012-11-13 19:55:00
3:15 PM,44.6,32.0,61,30.32,10.0,Calm,Calm,-,N/A,,Partly Cloudy,0,2012-11-13 20:15:00
3:35 PM,46.4,32.0,57,30.33,10.0,North,6.9,-,N/A,,Mostly Cloudy,10,2012-11-13 20:35:00
3:55 PM,44.6,32.0,61,30.34,10.0,Calm,Calm,-,N/A,,Mostly Cloudy,0,2012-11-13 20:55:00
4:15 PM,44.6,32.0,61,30.34,10.0,Calm,Calm,-,N/A,,Mostly Cloudy,0,2012-11-13 21:15:00
4:35 PM,44.6,32.0,61,30.35,10.0,Calm,Calm,-,N/A,,Overcast,0,2012-11-13 21:35:00
4:55 PM,42.8,30.2,61,30.36,10.0,Calm,Calm,-,N/A,,Scattered Clouds,0,2012-11-13 21:55:00
5:15 PM,42.8,30.2,61,30.36,10.0,Calm,Calm,-,N/A,,Mostly Cloudy,0,2012-11-13 22:15:00
5:35 PM,42.8,28.4,57,30.37,10.0,North,6.9,-,N/A,,Overcast,350,2012-11-13 22:35:00
5:55 PM,41.0,28.4,61,30.38,10.0,Calm,Calm,-,N/A,,Overcast,0,2012-11-13 22:55:00
6:15 PM,41.0,28.4,61,30.39,10.0,NNE,8.1,-,N/A,,Overcast,20,2012-11-13 23:15:00
6:35 PM,41.0,28.4,61,30.40,10.0,North,3.5,-,N/A,,Overcast,350,2012-11-13 23:35:00
6:55 PM,41.0,28.4,61,30.41,10.0,NNE,5.8,-,N/A,,Overcast,20,2012-11-13 23:55:00
7:15 PM,41.0,28.4,61,30.42,10.0,North,9.2,-,N/A,,Overcast,10,2012-11-14 00:15:00
7:35 PM,41.0,26.6,57,30.42,10.0,NNE,5.8,-,N/A,,Overcast,20,2012-11-14 00:35:00
7:55 PM,39.2,26.6,61,30.43,10.0,Calm,Calm,-,N/A,,Mostly Cloudy,0,2012-11-14 00:55:00
8:15 PM,39.2,26.6,61,30.44,10.0,North,5.8,-,N/A,,Mostly Cloudy,10,2012-11-14 01:15:00
8:35 PM,39.2,24.8,56,30.44,10.0,North,8.1,-,N/A,,Scattered Clouds,10,2012-11-14 01:35:00
8:55 PM,39.2,26.6,61,30.45,10.0,Calm,Calm,-,N/A,,Clear,0,2012-11-14 01:55:00
9:15 PM,37.4,26.6,65,30.45,10.0,Calm,Calm,-,N/A,,Clear,0,2012-11-14 02:15:00
9:35 PM,37.4,26.6,65,30.45,10.0,Calm,Calm,-,N/A,,Clear,0,2012-11-14 02:35:00
9:55 PM,37.4,26.6,65,30.46,10.0,Calm,Calm,-,N/A,,Clear,0,2012-11-14 02:55:00
10:15 PM,37.4,26.6,65,30.46,10.0,Calm,Calm,-,N/A,,Clear,0,2012-11-14 03:15:00
10:35 PM,35.6,26.6,70,30.46,10.0,Calm,Calm,-,N/A,,Clear,0,2012-11-14 03:35:00
10:55 PM,35.6,26.6,70,30.46,10.0,Calm,Calm,-,N/A,,Clear,0,2012-11-14 03:55:00
11:15 PM,35.6,26.6,70,30.46,10.0,Calm,Calm,-,N/A,,Clear,0,2012-11-14 04:15:00
11:35 PM,35.6,26.6,70,30.46,10.0,Calm,Calm,-,N/A,,Clear,0,2012-11-14 04:35:00
11:55 PM,35.6,26.6,70,30.46,10.0,Calm,Calm,-,N/A,,Clear,0,2012-11-14 04:55:00